| time (UTC) | temp F | wind direction | speed MPH | gust MPH | rain 1hr in | rain 24hr in | rain mn in | humidity % | barometer mb |
| 20260504201513 | 55 | 105 | 25.0 | 32.0 | 0.00 | 0.00 | 0.00 | 40 | 1007.8 |
| 20260504200013 | 55 | 80 | 22.0 | 36.0 | 0.00 | 0.00 | 0.00 | 39 | 1007.8 |
| 20260504194615 | 56 | 67 | 22.0 | 30.0 | 0.00 | 0.00 | 0.00 | 38 | 1007.9 |
| 20260504193106 | 55 | 98 | 20.0 | 35.0 | 0.00 | 0.00 | 0.00 | 40 | 1007.9 |
| 20260504191610 | 56 | 115 | 23.0 | 32.0 | 0.00 | 0.00 | 0.00 | 39 | 1008.1 |
| 20260504190036 | 54 | 106 | 19.0 | 26.0 | 0.00 | 0.00 | 0.00 | 44 | 1008.5 |
| 20260504184544 | 52 | 131 | 16.0 | 23.0 | 0.00 | 0.00 | 0.00 | 46 | 1008.5 |
| 20260504183015 | 52 | 121 | 14.0 | 26.0 | 0.00 | 0.00 | 0.00 | 45 | 1008.7 |
| 20260504181515 | 53 | 113 | 20.0 | 29.0 | 0.00 | 0.00 | 0.00 | 44 | 1008.7 |
| 20260504180057 | 52 | 109 | 18.0 | 25.0 | 0.00 | 0.00 | 0.00 | 45 | 1008.9 |
| 20260504174556 | 53 | 134 | 15.0 | 25.0 | 0.00 | 0.00 | 0.00 | 44 | 1008.8 |
| 20260504173042 | 52 | 114 | 16.0 | 26.0 | 0.00 | 0.00 | 0.00 | 45 | 1008.9 |
| 20260504171541 | 53 | 114 | 16.0 | 30.0 | 0.00 | 0.00 | 0.00 | 44 | 1009.2 |
| 20260504120103 | 49 | 55 | 25.0 | 36.0 | 0.00 | 0.00 | 0.00 | 42 | 1006.9 |
| 20260504081527 | 50 | 293 | 5.0 | 7.0 | 0.00 | 0.00 | 0.00 | 44 | 1003.8 |
| 20260504044518 | 55 | 209 | 4.0 | 6.0 | 0.00 | 0.00 | 0.00 | 38 | 1004.0 |
| 20260504043105 | 55 | 360 | 2.0 | 4.0 | 0.00 | 0.00 | 0.00 | 36 | 1004.1 |
| 20260504041600 | 57 | 360 | 0.0 | 2.0 | 0.00 | 0.00 | 0.00 | 34 | 1004.0 |
| 20260504040042 | 58 | 360 | 5.0 | 9.0 | 0.00 | 0.00 | 0.00 | 33 | 1003.9 |
| 20260504034541 | 59 | 360 | 6.0 | 8.0 | 0.00 | 0.00 | 0.00 | 32 | 1003.9 |
| 20260504033026 | 59 | 298 | 3.0 | 6.0 | 0.00 | 0.00 | 0.00 | 30 | 1003.8 |
| 20260504031526 | 60 | 296 | 2.0 | 4.0 | 0.00 | 0.00 | 0.00 | 30 | 1003.6 |
| 20260504030005 | 63 | 322 | 0.0 | 1.0 | 0.00 | 0.00 | 0.00 | 20 | 1003.5 |
| 20260504024505 | 65 | 325 | 0.0 | 4.0 | 0.00 | 0.00 | 0.00 | 19 | 1003.4 |
| 20260504023051 | 67 | 103 | 4.0 | 7.0 | 0.00 | 0.00 | 0.00 | 18 | 1003.4 |
| 20260504021548 | 69 | 71 | 3.0 | 11.0 | 0.00 | 0.00 | 0.00 | 16 | 1003.2 |
| 20260504020024 | 70 | 63 | 7.0 | 11.0 | 0.00 | 0.00 | 0.00 | 16 | 1003.2 |
| 20260504014526 | 72 | 32 | 8.0 | 12.0 | 0.00 | 0.00 | 0.00 | 18 | 1003.1 |
| 20260504013003 | 73 | 277 | 5.0 | 9.0 | 0.00 | 0.00 | 0.00 | 19 | 1003.1 |
| 20260504011501 | 73 | 242 | 9.0 | 12.0 | 0.00 | 0.00 | 0.00 | 19 | 1003.2 |
| 20260504010048 | 72 | 235 | 7.0 | 10.0 | 0.00 | 0.00 | 0.00 | 20 | 1003.4 |
| 20260504004542 | 73 | 254 | 6.0 | 8.0 | 0.00 | 0.00 | 0.00 | 19 | 1003.4 |
| 20260504003022 | 73 | 274 | 3.0 | 8.0 | 0.00 | 0.00 | 0.00 | 18 | 1003.6 |
| 20260504001519 | 72 | 142 | 2.0 | 5.0 | 0.00 | 0.00 | 0.00 | 21 | 1003.8 |
| 20260504000104 | 72 | 143 | 3.0 | 8.0 | 0.00 | 0.00 | 0.00 | 21 | 1004.0 |
| 20260503234625 | 72 | 232 | 4.0 | 7.0 | 0.00 | 0.00 | 0.00 | 22 | 1004.2 |
| 20260503233046 | 72 | 217 | 6.0 | 9.0 | 0.00 | 0.00 | 0.00 | 22 | 1004.3 |
| 20260503231539 | 73 | 157 | 5.0 | 12.0 | 0.00 | 0.00 | 0.00 | 21 | 1004.2 |
| 20260503230052 | 72 | 213 | 7.0 | 11.0 | 0.00 | 0.00 | 0.00 | 22 | 1004.3 |
| 20260503224518 | 72 | 184 | 1.0 | 7.0 | 0.00 | 0.00 | 0.00 | 22 | 1004.4 |
| 20260503223117 | 73 | 74 | 8.0 | 13.0 | 0.00 | 0.00 | 0.00 | 22 | 1004.6 |
| 20260503221601 | 72 | 192 | 5.0 | 10.0 | 0.00 | 0.00 | 0.00 | 22 | 1004.9 |
| 20260503220055 | 72 | 117 | 4.0 | 9.0 | 0.00 | 0.00 | 0.00 | 22 | 1005.1 |
| 20260503214535 | 72 | 161 | 1.0 | 7.0 | 0.00 | 0.00 | 0.00 | 23 | 1005.4 |
| 20260503213033 | 71 | 101 | 3.0 | 11.0 | 0.00 | 0.00 | 0.00 | 24 | 1005.8 |
| 20260503211513 | 71 | 115 | 6.0 | 18.0 | 0.00 | 0.00 | 0.00 | 25 | 1006.2 |
| 20260503210011 | 71 | 70 | 2.0 | 11.0 | 0.00 | 0.00 | 0.00 | 26 | 1006.4 |
| 20260503204555 | 71 | 132 | 7.0 | 14.0 | 0.00 | 0.00 | 0.00 | 27 | 1006.6 |
| 20260503203056 | 70 | 311 | 3.0 | 7.0 | 0.00 | 0.00 | 0.00 | 26 | 1007.0 |